Meteo Giornale » Osservazioni meteo Gran Bretagna » Boscombe Down

ore: 19:20 - Osservazioni Meteo Boscombe Down
Lat. 51° 10' N Lon. 1° 45' W Alt. 124 metri s.l.m.

poco_nuvoloso

17 °C

Poco Nuvoloso

Temp. 24 Ore

13 °C

23 °C

Ovest/Nord-Ovest

24 Km/h

Dew point 11 °C

Umidità 67 %

Visibilità  10 Km

Il sole sorge alle ore 06:18

Il sole tramonta alle ore 19:55

Data e Ora Cielo e Fenomeni T °C DP °C Um. % Pres. hPa Vis. km Vento km/h
Oggi h: 19:20 poco_nuvoloso Poco Nuvoloso 17 11 67 1017 10 O/NO 24
Oggi h: 18:50 sereno Sereno 18 10 59 1017 10 O/NO 25.9
Oggi h: 18:20 sereno Sereno 19 10 55 1017 10 O 25.9
Oggi h: 17:50 sereno Sereno 19 10 55 1016 10 O/NO 29.6
Oggi h: 17:20 poco_nuvoloso Poco Nuvoloso 20 11 56 1016 10 O 27.8
Oggi h: 16:50 nuvoloso Nuvoloso 21 10 49 1016 10 O 29.6
Oggi h: 16:20 nuvoloso Nuvoloso 21 12 56 1015 10 O 25.9
Oggi h: 15:50 nuvoloso Nuvoloso 21 12 56 1015 10 O 27.8
Oggi h: 15:20 nuvoloso Nuvoloso 21 11 52 1015 10 O 29.6
Oggi h: 14:50 nuvoloso Nuvoloso 23 13 53 1014 10 O 29.6
Oggi h: 14:20 nuvoloso Nuvoloso 21 12 56 1014 10 O 24
Oggi h: 13:50 nuvoloso Nuvoloso 21 12 56 1014 10 O/NO 22.2
Oggi h: 13:20 nuvoloso Nuvoloso 20 12 59 1013 10 O/NO 24
Oggi h: 12:50 nuvoloso Nuvoloso 21 13 60 1013 10 O/NO 27.8
Oggi h: 12:20 molto_nuvoloso Molto Nuvoloso 21 13 60 1013 10 O 29.6
Oggi h: 11:50 nuvoloso Nuvoloso 20 13 64 1012 10 O/NO 27.8
Oggi h: 11:20 nuvoloso Nuvoloso 20 13 64 1012 10 O/NO 27.8
Oggi h: 11:07 nuvoloso Nuvoloso 20 13 64 1012 10 O/NO 27.8
Oggi h: 10:50 nuvoloso Nuvoloso 19 13 68 1011 10 O/NO 27.8
Oggi h: 10:20 nuvoloso Nuvoloso 19 13 68 1011 10 O 24
Oggi h: 09:50 nuvoloso Nuvoloso 18 14 77 1011 10 O 24
Oggi h: 09:20 nuvoloso Nuvoloso 17 14 82 1010 10 O 25.9
Oggi h: 08:50 molto_nuvoloso Molto Nuvoloso 16 14 87 1010 10 O 25.9
Oggi h: 08:20 coperto Coperto 15 14 93 1009 10 O/SO 22.2
Oggi h: 07:50 molto_nuvoloso Molto Nuvoloso 14 13 93 1009 10 O/SO 16.7
Oggi h: 07:20 nuvoloso Nuvoloso 14 13 93 1008 10 O/SO 18.5
Oggi h: 06:50 molto_nuvoloso Molto Nuvoloso 14 13 93 1008 10 O/SO 18.5
Oggi h: 06:20 nuvoloso Nuvoloso 14 12 87 1007 10 O/SO 14.8
Oggi h: 05:50 sereno Sereno 13 12 93 1007 10 O/SO 18.5
Oggi h: 05:20 nuvoloso Nuvoloso 13 12 93 1007 10 O 24
Oggi h: 04:50 molto_nuvoloso Molto Nuvoloso 13 12 93 1006 10 O/SO 18.5
Oggi h: 04:20 coperto_pioggia Pioggia 14 12 87 1006 10 O/SO 18.5
Oggi h: 03:50 coperto Coperto 14 12 87 1006 10 O/SO 22.2
Oggi h: 03:20 nuvoloso Nuvoloso 14 12 87 1006 10 SO 20.3
Oggi h: 02:50 molto_nuvoloso Molto Nuvoloso 14 12 87 1006 10 O/SO 20.3
Oggi h: 02:20 molto_nuvoloso Molto Nuvoloso 14 13 93 1005 10 O/SO 22.2
Oggi h: 01:50 molto_nuvoloso Molto Nuvoloso 14 13 93 1005 10 O/SO 20.3
Oggi h: 01:20 poco_nuvoloso Poco Nuvoloso 15 13 87 1005 10 SO 20.3
Oggi h: 00:50 poco_nuvoloso Poco Nuvoloso 15 14 93 1005 10 SO 22.2
Oggi h: 00:20 coperto_pioggia Pioggia 15 14 93 1005 10 SO 16.7
Ieri h: 23:50 coperto_pioggia Pioggia 15 14 93 1005 5 SO 18.5
Ieri h: 23:20 coperto_pioggia Pioggia 15 14 93 1005 3 S 20.3
Ieri h: 22:50 nuvoloso Nuvoloso 15 14 93 1005 10 S/SO 16.7
Ieri h: 22:20 nuvoloso Nuvoloso 15 14 93 1006 10 S/SO 20.3
Ieri h: 21:50 coperto_pioggia Pioggia 15 14 93 1006 10 S/SO 14.8
Ieri h: 21:20 nuvoloso Nuvoloso 15 14 93 1006 10 S/SO 13
Ieri h: 20:50 coperto_pioggia Pioviggine 16 15 93 1006 10 SO 20.3
Ieri h: 20:20 coperto_pioggia Pioggia 16 15 93 1006 1 S 18.5
Ieri h: 19:50 coperto_pioggia Pioggia 16 15 93 1006 10 S 20.3